EW6828 Weather Reports


time (UTC)temp
F
wind
direction
speed
knots
gust
knots
rain 1hr
in
rain 24hr
in
rain mn
in
humidity
%
barometer
mb
20260507140001 62 231 9.6 15.6 0.00 0.11 0.11 66 1004.8
20260507134500 62 208 6.1 17.4 0.00 0.11 0.11 65 1005.1
20260507134001 62 211 13.0 20.0 0.00 0.11 0.11 66 1003.4
20260507133003 63 211 11.3 18.2 0.00 0.11 0.11 69 1002.3
20260507132500 63 226 7.0 19.1 0.00 0.11 0.11 69 1002.1
20260507132000 63 207 5.2 19.1 0.00 0.11 0.11 69 1001.9
20260507131459 64 201 11.3 19.1 0.00 0.11 0.11 68 1002.2
20260507131000 64 211 6.1 14.8 0.00 0.11 0.11 71 1002.1
20260507130500 64 205 7.0 14.8 0.00 0.11 0.11 70 1002.4
20260507125459 64 216 9.6 14.8 0.00 0.11 0.11 69 1002.5
20260507124459 64 222 7.8 17.4 0.00 0.11 0.11 68 1002.3
20260507124001 65 218 9.6 17.4 0.00 0.11 0.11 70 1001.8
20260507123459 65 212 9.6 15.6 0.00 0.11 0.11 73 1001.9
20260507123002 65 187 7.8 15.6 0.00 0.11 0.11 75 1001.8
20260507122459 65 173 9.6 14.8 0.00 0.11 0.11 76 1001.7
20260507122001 65 176 5.2 12.2 0.00 0.11 0.11 78 1001.9
20260507121001 65 176 6.1 17.4 0.00 0.11 0.11 81 1001.4
20260507120459 65 190 7.0 17.4 0.00 0.11 0.11 83 1001.4
20260507120001 65 206 7.0 12.2 0.00 0.11 0.11 84 1001.3
20260507115001 65 195 4.3 14.8 0.00 0.11 0.11 86 1001.3
20260507114500 66 203 7.8 15.6 0.00 0.11 0.11 86 1000.8
20260507114002 66 200 8.7 15.6 0.00 0.11 0.11 86 1000.9
20260507113500 66 202 10.4 15.6 0.00 0.11 0.11 86 1001.0
20260507113002 66 198 8.7 15.6 0.00 0.11 0.11 86 1000.9
20260507112500 66 169 7.8 15.6 0.00 0.11 0.11 86 1000.7
20260507112002 66 199 7.0 13.0 0.00 0.11 0.11 86 1000.5
20260507111500 66 221 7.0 13.9 0.00 0.11 0.11 87 1000.4
20260507111002 66 208 4.3 14.8 0.00 0.11 0.11 87 1000.4
20260507110459 66 208 6.1 20.9 0.00 0.11 0.11 87 1000.1
20260507110002 66 204 7.0 20.9 0.00 0.11 0.11 87 999.9
20260507105459 66 205 7.8 17.4 0.00 0.11 0.11 87 1000.0
20260507105001 67 202 8.7 17.4 0.00 0.11 0.11 87 1000.0
20260507104002 67 186 2.6 15.6 0.00 0.11 0.11 88 999.7
20260507103459 67 178 7.8 17.4 0.00 0.11 0.11 88 999.8
20260507103001 67 178 7.0 17.4 0.00 0.11 0.11 88 999.7
20260507102001 67 205 7.0 13.9 0.00 0.11 0.11 88 999.0
20260507101501 67 196 7.0 13.9 0.00 0.11 0.11 89 999.0
20260507100459 67 174 7.0 13.0 0.00 0.11 0.11 89 999.0
20260507100002 67 170 7.0 13.0 0.00 0.11 0.11 89 998.5
20260507095501 67 185 7.0 13.0 0.00 0.11 0.11 89 998.6
20260507095001 67 204 4.3 14.8 0.00 0.11 0.11 88 998.3
20260507094459 67 210 5.2 15.6 0.00 0.11 0.11 88 998.4
20260507093500 67 209 5.2 15.6 0.00 0.11 0.11 90 997.7
20260507093002 67 199 6.1 20.9 0.00 0.11 0.11 90 997.8
20260507092459 68 221 6.1 20.9 0.00 0.11 0.11 90 997.4
20260507092001 68 220 7.8 18.2 0.00 0.11 0.11 90 997.3
20260507091459 68 186 7.0 13.9 0.00 0.11 0.11 90 997.1
20260507091001 67 210 7.0 13.0 0.00 0.11 0.11 90 996.9
20260507090459 67 217 7.0 15.6 0.00 0.11 0.11 90 997.5
20260507090002 67 202 8.7 15.6 0.00 0.11 0.11 90 997.5
20260507085459 67 209 6.1 11.3 0.00 0.11 0.11 90 997.9
20260507085002 67 216 1.7 7.8 0.00 0.11 0.11 91 998.0
20260507084501 67 220 4.3 11.3 0.03 0.11 0.11 91 998.4
20260507084001 67 224 7.0 11.3 0.03 0.11 0.11 91 998.0
20260507083459 67 229 3.5 9.6 0.03 0.11 0.11 92 997.8
20260507083003 67 220 5.2 13.0 0.03 0.11 0.11 91 997.6
20260507082501 67 218 4.3 13.0 0.04 0.11 0.11 91 997.9
20260507082002 67 213 5.2 13.0 0.08 0.11 0.11 90 998.3
20260507081459 67 201 6.1 11.3 0.11 0.11 0.11 90 997.6
20260507080501 67 206 4.3 7.0 0.11 0.11 0.11 91 998.0
20260507080001 67 200 3.5 7.0 0.11 0.11 0.11 91 998.4
20260507075501 68 210 3.5 6.1 0.11 0.11 0.11 91 998.1
20260507075003 68 207 3.5 6.1 0.11 0.11 0.11 91 998.4
20260507074002 68 183 1.7 6.1 0.08 0.08 0.08 90 998.6
20260507073500 68 168 1.7 6.1 0.08 0.08 0.08 90 998.8
20260507073002 69 142 2.6 5.2 0.08 0.08 0.08 89 998.5
20260507072459 70 158 1.7 7.0 0.04 0.04 0.04 87 998.8
20260507072001 71 175 1.7 7.0 0.03 0.03 0.03 83 998.9
20260507071500 72 170 1.7 7.8 0.00 0.00 0.00 82 998.7
20260507071001 72 194 0.9 9.6 0.00 0.00 0.00 83 998.8
20260507070459 72 200 3.5 9.6 0.00 0.00 0.00 83 998.9
20260507070002 73 178 3.5 7.8 0.00 0.00 0.00 83 998.5
20260507065459 74 171 3.5 7.8 0.00 0.00 0.00 86 998.4
20260507065001 75 192 3.5 6.1 0.00 0.00 0.00 89 998.4
20260507064500 74 201 1.7 6.1 0.00 0.00 0.00 89 998.4
20260507064001 74 194 1.7 6.1 0.00 0.00 0.00 89 998.5
20260507063501 74 176 2.6 6.1 0.00 0.00 0.00 90 998.5
20260507063002 74 33 0.0 1.7 0.00 0.00 0.00 90 998.0
20260507062500 74 16 1.7 3.5 0.00 0.00 0.00 90 997.7
20260507062002 74 15 0.0 3.5 0.00 0.00 0.00 90 997.9
20260507061500 74 2 1.7 3.5 0.00 0.00 0.00 89 997.6
20260507061001 74 19 1.7 3.5 0.00 0.00 0.00 89 997.9
20260507060002 75 33 1.7 5.2 0.00 0.00 0.00 88 997.8
20260507055500 75 280 1.7 3.5 0.00 0.00 0.00 88 997.7
20260507055001 75 280 0.0 3.5 0.00 0.00 0.00 88 997.9
20260507053500 75 273 0.9 3.5 0.00 0.00 0.00 87 998.4
20260507053001 75 287 0.9 5.2 0.00 0.00 0.00 87 998.5
20260507052500 75 309 3.5 5.2 0.00 0.00 0.00 87 998.3
20260507051003 75 354 1.7 5.2 0.00 0.00 0.00 87 998.4
20260507050500 75 348 3.5 5.2 0.00 0.00 0.00 87 998.4
20260507050002 75 10 2.6 5.2 0.00 0.00 0.00 87 998.5
20260507045500 75 10 1.7 5.2 0.00 0.00 0.00 86 998.3
20260507045002 76 15 2.6 5.2 0.00 0.00 0.00 86 998.5
20260507044459 76 15 3.5 5.2 0.00 0.00 0.00 86 998.3
20260507044003 76 358 1.7 6.1 0.00 0.00 0.00 86 998.4
20260507043501 76 351 3.5 6.1 0.00 0.00 0.00 86 998.4
20260507042500 76 28 2.6 6.1 0.00 0.00 0.00 85 998.5
20260507042003 76 32 2.6 6.1 0.00 0.00 0.00 85 998.3
20260507041459 76 20 3.5 6.1 0.00 0.00 0.00 85 998.4
20260507041002 76 21 2.6 6.1 0.00 0.00 0.00 85 998.4
20260507040003 76 349 1.7 7.0 0.00 0.00 0.00 84 998.6
20260507035002 77 5 1.7 7.0 0.00 0.00 0.00 83 998.5
20260507034500 77 354 2.6 7.0 0.00 0.00 0.00 83 998.7
20260507033500 77 338 3.5 6.1 0.00 0.00 0.00 83 998.8
20260507033002 76 340 3.5 5.2 0.00 0.00 0.00 83 998.9
20260507032459 76 6 1.7 5.2 0.00 0.00 0.00 84 998.8
20260507032002 76 24 2.6 3.5 0.00 0.00 0.00 84 999.0
20260507031500 76 29 1.7 3.5 0.00 0.00 0.00 83 999.1
20260507031001 76 9 1.7 3.5 0.00 0.00 0.00 83 999.2
20260507030500 77 3 1.7 3.5 0.00 0.00 0.00 83 999.1
20260507030003 77 11 1.7 3.5 0.00 0.00 0.00 83 999.4
20260507025500 77 18 0.0 1.7 0.00 0.00 0.00 83 999.4
20260507025002 77 11 1.7 1.7 0.00 0.00 0.00 82 999.5
20260507024002 77 346 1.7 3.5 0.00 0.00 0.00 82 999.5
20260507023500 77 349 1.7 3.5 0.00 0.00 0.00 82 999.4
20260507023004 77 2 1.7 3.5 0.00 0.00 0.00 82 999.3
20260507022500 77 22 1.7 3.5 0.00 0.00 0.00 81 999.4
20260507022003 78 27 0.9 3.5 0.00 0.00 0.00 81 999.3
20260507021003 78 5 1.7 3.5 0.00 0.00 0.00 81 999.6
20260507020002 77 9 1.7 5.2 0.00 0.00 0.00 81 999.5
20260507015501 77 36 1.7 3.5 0.00 0.00 0.00 81 999.2
20260507015002 77 24 1.7 3.5 0.00 0.00 0.00 81 999.4
20260507014500 77 32 1.7 3.5 0.00 0.00 0.00 82 999.5
20260507014004 77 26 1.7 7.0 0.00 0.00 0.00 82 999.4
20260507013500 77 22 2.6 7.0 0.00 0.00 0.00 82 999.1
20260507013002 77 17 4.3 7.0 0.00 0.00 0.00 81 999.0
20260507012500 77 9 3.5 7.0 0.00 0.00 0.00 81 998.7
20260507012002 77 30 3.5 7.8 0.00 0.00 0.00 81 998.8
20260507011500 77 31 3.5 7.8 0.00 0.00 0.00 81 999.0
20260507011004 77 9 6.1 7.8 0.00 0.00 0.00 80 998.5
20260507010500 77 22 2.6 6.1 0.00 0.00 0.00 81 998.7
20260507005002 78 14 4.3 7.0 0.00 0.00 0.00 80 998.8
20260507004501 78 22 3.5 7.0 0.00 0.00 0.00 79 998.7
20260507004002 78 1 4.3 7.0 0.00 0.00 0.00 79 998.9
20260507003502 78 9 3.5 9.6 0.00 0.00 0.00 79 999.0
20260507002002 78 13 3.5 7.8 0.00 0.00 0.00 78 998.8
20260507001501 79 9 5.2 7.8 0.00 0.00 0.00 78 999.1
20260507001004 79 3 3.5 7.0 0.00 0.00 0.00 77 999.0
20260507000501 79 5 3.5 6.1 0.00 0.00 0.00 77 999.1
20260507000003 79 10 3.5 6.1 0.00 0.00 0.00 77 999.1
20260506235500 80 14 2.6 5.2 0.00 0.00 0.00 76 999.1
20260506235003 80 16 2.6 6.1 0.00 0.00 0.00 76 999.3
20260506234501 80 18 3.5 6.1 0.00 0.00 0.00 75 999.2
20260506233502 81 358 3.5 7.0 0.00 0.00 0.00 74 999.1
20260506233002 81 10 4.3 9.6 0.00 0.00 0.00 74 999.1
20260506232502 81 26 5.2 9.6 0.00 0.00 0.00 73 999.0
20260506232002 81 36 5.2 9.6 0.00 0.00 0.00 73 998.8
20260506231501 82 21 6.1 9.6 0.00 0.00 0.00 72 998.6
20260506231002 82 1 4.3 11.3 0.00 0.00 0.00 71 998.9
20260506230500 82 18 6.1 12.2 0.00 0.00 0.00 71 998.7
20260506230002 82 31 6.1 12.2 0.00 0.00 0.00 71 998.8
20260506225501 82 43 7.0 12.2 0.00 0.00 0.00 71 998.6
20260506225004 82 35 7.0 12.2 0.00 0.00 0.00 72 998.9
20260506224500 82 349 2.6 9.6 0.00 0.00 0.00 73 998.9
20260506224002 82 355 4.3 9.6 0.00 0.00 0.00 73 999.2
20260506223502 82 9 6.1 9.6 0.00 0.00 0.00 73 999.0
20260506222501 82 22 7.0 13.0 0.00 0.00 0.00 72 999.3
20260506222002 82 24 7.0 13.0 0.00 0.00 0.00 72 999.3
20260506221500 82 17 4.3 12.2 0.00 0.00 0.00 72 999.3
20260506221002 83 13 3.5 9.6 0.00 0.00 0.00 71 999.4
20260506220502 83 1 6.1 9.6 0.00 0.00 0.00 71 999.2
20260506220003 83 13 3.5 7.8 0.00 0.00 0.00 72 999.2
20260506215501 83 24 3.5 7.0 0.00 0.00 0.00 71 999.3
20260506215002 84 38 3.5 7.0 0.00 0.00 0.00 71 999.3
20260506213500 84 338 1.7 6.1 0.00 0.00 0.00 69 999.7
20260506213002 85 347 1.7 6.1 0.00 0.00 0.00 69 999.5
20260506212502 85 340 3.5 7.0 0.00 0.00 0.00 68 999.6
20260506212003 85 329 3.5 7.8 0.00 0.00 0.00 68 999.3
20260506211003 85 348 4.3 9.6 0.00 0.00 0.00 66 999.1
20260506210500 86 10 4.3 9.6 0.00 0.00 0.00 66 999.1
20260506205500 86 343 5.2 11.3 0.00 0.00 0.00 65 999.5
20260506205002 86 356 4.3 13.9 0.00 0.00 0.00 65 999.3
20260506204500 86 357 6.1 13.9 0.00 0.00 0.00 64 999.4
20260506204003 87 2 7.8 12.2 0.00 0.00 0.00 64 999.5
20260506203500 87 9 5.2 12.2 0.00 0.00 0.00 64 999.7
20260506203003 87 347 4.3 12.2 0.00 0.00 0.00 64 999.6
20260506202502 87 353 7.0 12.2 0.00 0.00 0.00 63 999.7
20260506202002 87 3 3.5 11.3 0.00 0.00 0.00 63 999.6
20260506201500 87 5 3.5 13.9 0.00 0.00 0.00 63 999.5
20260506201002 87 351 7.8 13.9 0.00 0.00 0.00 63 999.5
20260506200501 88 332 6.1 13.9 0.00 0.00 0.00 63 1000.0
20260506200004 88 346 7.0 13.9 0.00 0.00 0.00 63 1000.0
20260506195502 88 12 7.0 13.9 0.00 0.00 0.00 63 999.8
20260506195004 88 1 3.5 13.9 0.00 0.00 0.00 63 999.7
20260506194003 88 5 5.2 12.2 0.00 0.00 0.00 62 999.9
20260506193502 88 1 7.8 13.9 0.00 0.00 0.00 62 999.7
20260506193003 88 352 7.8 13.9 0.00 0.00 0.00 62 999.7
20260506192501 88 344 4.3 13.0 0.00 0.00 0.00 62 999.9
20260506192003 88 343 3.5 13.9 0.00 0.00 0.00 62 999.9
20260506191501 88 353 7.0 15.6 0.00 0.00 0.00 62 999.9
20260506191002 88 358 9.6 15.6 0.00 0.00 0.00 63 999.9
20260506190003 88 333 7.8 13.9 0.00 0.00 0.00 62 1000.1
20260506185501 87 338 5.2 12.2 0.00 0.00 0.00 63 1000.2
20260506185003 88 348 3.5 13.9 0.00 0.00 0.00 61 1000.2
20260506184501 88 346 6.1 13.9 0.00 0.00 0.00 61 1000.2
20260506184002 88 326 5.2 12.2 0.00 0.00 0.00 61 1000.4
20260506183501 87 341 7.0 15.6 0.00 0.00 0.00 62 1000.3
20260506182500 87 344 9.6 15.6 0.00 0.00 0.00 63 1000.4
20260506182002 87 354 8.7 12.2 0.00 0.00 0.00 62 1000.5
20260506181500 87 351 7.0 12.2 0.00 0.00 0.00 62 1000.4
20260506180502 89 13 7.0 13.0 0.00 0.00 0.00 61 1000.6
20260506180005 88 15 7.0 13.0 0.00 0.00 0.00 60 1000.5
20260506175502 87 24 7.8 13.9 0.00 0.00 0.00 63 1000.6
20260506175004 87 18 7.0 13.9 0.00 0.00 0.00 64 1000.8
20260506174500 87 350 6.1 17.4 0.00 0.00 0.00 63 1000.8
20260506173500 87 3 3.5 14.8 0.00 0.00 0.00 62 1001.2
20260506173004 88 9 7.8 14.8 0.00 0.00 0.00 60 1001.0
20260506172501 88 40 7.0 14.8 0.00 0.00 0.00 61 1001.2
20260506172004 88 22 8.7 14.8 0.00 0.00 0.00 60 1001.4
20260506171500 87 354 7.0 13.9 0.00 0.00 0.00 62 1001.4
20260506171003 87 7 7.0 14.8 0.00 0.00 0.00 63 1001.5
20260506170500 88 13 7.0 14.8 0.00 0.00 0.00 62 1001.6
20260506170004 88 10 7.0 13.0 0.00 0.00 0.00 62 1001.7
20260506165500 87 22 7.0 11.3 0.00 0.00 0.00 64 1002.0
20260506165003 88 35 5.2 11.3 0.00 0.00 0.00 64 1001.8
20260506164003 87 15 4.3 13.0 0.00 0.00 0.00 64 1001.9
20260506163004 86 34 4.3 13.0 0.00 0.00 0.00 67 1002.2
20260506162003 86 350 7.8 13.0 0.00 0.00 0.00 67 1002.0
20260506161501 86 5 8.7 13.0 0.00 0.00 0.00 66 1002.3
20260506161004 85 17 7.0 13.0 0.00 0.00 0.00 69 1002.4
20260506160500 85 11 5.2 13.0 0.00 0.00 0.00 68 1002.5
20260506160003 85 21 3.5 11.3 0.00 0.00 0.00 68 1002.7
20260506155500 85 24 7.0 11.3 0.00 0.00 0.00 69 1002.4
20260506155003 85 5 6.1 11.3 0.00 0.00 0.00 68 1002.5
20260506154501 85 4 2.6 13.9 0.00 0.00 0.00 69 1002.5
20260506153501 85 23 6.1 11.3 0.00 0.00 0.00 69 1003.1
20260506153004 85 40 4.3 12.2 0.00 0.00 0.00 69 1003.1
20260506152004 84 23 4.3 11.3 0.00 0.00 0.00 70 1003.3
20260506151501 84 32 6.1 12.2 0.00 0.00 0.00 71 1003.1
20260506151005 84 37 4.3 12.2 0.00 0.00 0.00 70 1003.6
20260506150501 84 34 7.8 12.2 0.00 0.00 0.00 71 1003.7
20260506150003 83 26 7.0 11.3 0.00 0.00 0.00 71 1003.6